カタログに戻る

GEESAT 1-03

運用中科学LEO
NORAD 52787·PAYLOAD·🇨🇳 China

打ち上げ Jun 2, 2022 から Xichang Satellite Launch Center

Loading…

次のパス (今後24時間)

TLE

最新Source: Space-Track

元期: Sep 14, 2026, 14:31 UTC

1 52787U 22058C   26257.60529874  .00001202  00000-0  17945-3 0  9993
2 52787  49.9868 148.3055 0008146  84.9959 275.1908 14.81604191233199

AllMySatでGEESAT 1-03をリアルタイム追跡

Download on the App Store